This demonstration page uses our WeatherBlox Daily Observations layout. Learn more.

Left ArrowRight Arrow

34.74481, -87.66753

Hourly Observations for May 6, 2021

Temp ( °F °C ) Dew Point ( °F °C ) Humidity (%) Winds ( mph kmh ) Pressure ( in mb ) Visibility ( mi km ) Precip ( " mm )
12:53 am 00:53 Clear 57 13.9 45 7.2 64 64 NNE 5 7 30.12 1020 10 16 0.00 0.00
1:53 am 01:53 Clear 55 12.8 45 7.2 69 69 NE 3 6 30.10 1019 10 16 0.00 0.00
2:53 am 02:53 Clear 54 12.2 45 7.2 72 72 N 3 6 30.11 1020 10 16 0.00 0.00
3:53 am 03:53 Clear 51 10.6 45 7.2 80 80 Calm 30.12 1020 10 16 0.00 0.00
4:53 am 04:53 Clear 49 9.4 43 6.1 80 80 W 3 6 30.13 1020 10 16 0.00 0.00
5:53 am 05:53 Clear 48 8.9 43 6.1 83 83 Calm 30.13 1020 9 14 0.00 0.00
6:53 am 06:53 Sunny 52 11.1 46 7.8 80 80 Calm 30.17 1022 10 16 0.00 0.00
7:53 am 07:53 Sunny 59 15 47 8.3 64 64 Calm 30.18 1022 10 16 0.00 0.00
8:53 am 08:53 Sunny 63 17.2 42 5.6 47 47 NE 5 7 30.18 1022 10 16 0.00 0.00
9:53 am 09:53 Sunny 66 18.9 42 5.6 42 42 Calm 30.17 1022 10 16 0.00 0.00
10:53 am 10:53 Sunny 68 20 41 5 38 38 NNW 10 17 30.17 1022 10 16 0.00 0.00
11:53 am 11:53 Sunny 68 20 40 4.4 36 36 undefined N/A 30.15 1021 10 16 0.00 0.00
12:53 pm 12:53 Sunny 71 21.7 43 6.1 36 36 VRB 5 7 30.11 1020 10 16 0.00 0.00
1:53 pm 13:53 Sunny 74 23.3 44 6.7 34 34 NW 8 13 30.09 1019 10 16 0.00 0.00
2:53 pm 14:53 Sunny 74 23.3 44 6.7 34 34 VRB 5 7 30.06 1018 10 16 0.00 0.00
3:53 pm 15:53 Sunny 75 23.9 44 6.7 33 33 WSW 12 19 30.03 1017 10 16 0.00 0.00
4:53 pm 16:53 Sunny 74 23.3 42 5.6 32 32 W 9 15 30.02 1017 10 16 0.00 0.00
5:53 pm 17:53 Cloudy 61 16.1 46 7.8 58 58 NW 21 33 30.10 1019 10 16 0.00 0.00
6:53 pm 18:53 undefined 58 14.4 50 10 75 75 undefined N/A 30.06 1018 N/A 0.08 2.03
7:53 pm 19:53 Clear 57 13.9 51 10.6 81 81 Calm 30.08 1019 10 16 0.00 0.00
8:53 pm 20:53 Mostly Clear 56 13.3 51 10.6 84 84 Calm 30.08 1019 10 16 0.00 0.00
9:53 pm 21:53 Clear 55 12.8 50 10 83 83 Calm 30.09 1019 10 16 0.00 0.00
10:53 pm 22:53 Clear with Mist and Fog 54 12.2 50 10 87 87 Calm 30.10 1019 6 10 0.00 0.00
11:25 pm 23:25 Hazy 54 12.2 49 9.4 83 83 Calm 30.11 1020 2 3 0.00 0.00
11:29 pm 23:29 Mostly Cloudy with Mist and Fog 53 11.7 49 9.4 86 86 W 3 6 30.11 1020 1 2 0.00 0.00
11:36 pm 23:36 Mostly Clear with Mist and Fog 53 11.7 49 9.4 86 86 W 3 6 30.11 1020 3 4 0.00 0.00
11:43 pm 23:43 Mostly Clear 53 11.7 48 8.9 83 83 Calm 30.11 1020 10 16 0.00 0.00
11:53 pm 23:53 Clear 53 11.7 49 9.4 86 86 Calm 30.11 1020 9 14 0.00 0.00

Powered by AerisWeather